Change the Weather History Date:

Thursday, November 8, 2012

  Actual Average Record
Temperature  
Mean Temperature 55 °F 43 °F  
Max Temperature 76 °F 60 °F 84 °F (1980)
Min Temperature 34 °F 26 °F 10 °F (1925)
Degree Days  
Heating Degree Days 10 22  
Month to date heating degree days 102 162  
Since 1 July heating degree days 559 629  
Cooling Degree Days 0 0  
Month to date cooling degree days 0 0  
Year to date cooling degree days 1626 1121  
Growing Degree Days 6 (Base 50)    
Moisture  
Dew Point 26 °F    
Average Humidity 44    
Maximum Humidity 75    
Minimum Humidity 13    
Precipitation  
Precipitation 0.00 in 0.02 in 0.80 in (1929)
Month to date precipitation 0.00 0.17  
Year to date precipitation 5.93 14.59  
Sea Level Pressure  
Sea Level Pressure 29.78 in    
Wind  
Wind Speed 8 mph (SE)    
Max Wind Speed 17 mph    
Max Gust Speed 22 mph    
Visibility 10 miles    
Events      
T = Trace of Precipitation, MM = Missing Value Source: NWS Daily Summary

Daily Weather History Graph

Daily Weather History Graph

Search for Another Location

Airport or City:

Trip Planner

Search our weather history database for the weather conditions in past years. The results will help you decide how hot, cold, wet, or windy it might be!

Date:

Astronomy

Nov. 08, 2012 Rise Set
Actual Time 6:24 AM MST 4:43 PM MST
Civil Twilight 5:56 AM MST 5:11 PM MST
Nautical Twilight 5:25 AM MST 5:43 PM MST
Astronomical Twilight 4:54 AM MST 6:14 PM MST
Moon 12:27 AM MST (11/8) 1:21 PM MST (11/8)
Length of Visible Light 11h 14m
Length of Day
10h 19m
Waning Crescent, 32% of the Moon is Illuminated
Nov 8
Waning Crescent
Nov 13
New
Nov 20
First Quarter
Nov 28
Full
Dec 6
Last Quarter

Hourly Weather History & Observations

Time (MST) Temp. Windchill Dew Point Humidity Pressure Visibility Wind Dir Wind Speed Gust Speed Precip Events Conditions
12:53 AM 37.0 °F 29.8 °F 28.0 °F 70% 29.79 in 10.0 mi West 10.4 mph - N/A   Clear
1:53 AM 36.0 °F 29.6 °F 28.0 °F 73% 29.79 in 10.0 mi West 8.1 mph - N/A   Clear
2:53 AM 39.0 °F 32.8 °F 27.0 °F 62% 29.77 in 10.0 mi SW 9.2 mph - N/A   Clear
3:53 AM 39.0 °F 32.8 °F 27.0 °F 62% 29.78 in 10.0 mi WSW 9.2 mph - N/A   Clear
5:53 AM 42.1 °F 36.6 °F 23.0 °F 47% 29.83 in 10.0 mi WSW 9.2 mph - N/A   Clear
6:53 AM 41.0 °F 35.2 °F 23.0 °F 49% 29.84 in 10.0 mi SW 9.2 mph - N/A   Clear
7:53 AM 51.1 °F - 23.0 °F 33% 29.87 in 10.0 mi West 11.5 mph - N/A   Clear
8:53 AM 59.0 °F - 23.0 °F 25% 29.87 in 10.0 mi West 9.2 mph - N/A   Clear
9:53 AM 64.9 °F - 24.1 °F 21% 29.85 in 10.0 mi West 9.2 mph - N/A   Clear
10:53 AM 75.0 °F - 21.9 °F 14% 29.81 in 10.0 mi NE 15.0 mph - N/A   Clear
11:53 AM 75.0 °F - 21.9 °F 14% 29.79 in 10.0 mi Calm Calm - N/A   Clear
12:53 PM 75.0 °F - 21.9 °F 14% 29.77 in 10.0 mi East 6.9 mph - N/A   Clear
1:53 PM 73.9 °F - 21.9 °F 14% 29.77 in 10.0 mi East 4.6 mph - N/A   Clear
2:53 PM 73.9 °F - 21.9 °F 14% 29.75 in 10.0 mi SE 5.8 mph - N/A   Clear
3:53 PM 72.0 °F - 24.1 °F 17% 29.74 in 10.0 mi East 10.4 mph - N/A   Clear
4:53 PM 62.1 °F - 26.1 °F 25% 29.77 in 10.0 mi East 9.2 mph - N/A   Clear
5:53 PM 57.0 °F - 27.0 °F 32% 29.78 in 10.0 mi ESE 9.2 mph - N/A   Clear
6:53 PM 55.0 °F - 27.0 °F 34% 29.79 in 10.0 mi East 6.9 mph - N/A   Clear
7:53 PM 50.0 °F - 30.0 °F 46% 29.76 in 10.0 mi ESE 8.1 mph - N/A   Clear
8:53 PM 46.9 °F - 30.0 °F 52% 29.75 in 10.0 mi East 6.9 mph - N/A   Clear
9:53 PM 44.1 °F 41.5 °F 28.9 °F 55% 29.74 in 10.0 mi ENE 4.6 mph - N/A   Clear
10:53 PM 42.1 °F 36.6 °F 28.9 °F 60% 29.71 in 10.0 mi East 9.2 mph - N/A   Clear
11:53 PM 42.1 °F 37.1 °F 30.9 °F 65% 29.70 in 10.0 mi ENE 8.1 mph - N/A   Clear